Weather Roundup
Issued by NWS

Home | Current Version | Previous Version | Text Only | Print | Product List | Glossary On
Versions: 1 2 3 4 5 6 7 8 9 10 11 12 13 14 15 16 17 18 19 20 21 22 23 24 25 26 27 28 29 30 31 32 33 34 35 36 37 38 39 40 41 42 43 44 45 46 47 48 49 50
000
NZUS93 KARX 221710
HRRWXR

CURRENT HOURLY OBSERVATIONS ACROSS
MUCH OF THE UPPER MISSISSIPPI VALLEY
NATIONAL WEATHER SERVICE LA CROSSE WI
1200 PM CDT TUE JUL 22 2014


...SOUTHEAST MINNESOTA...


CITY           SKY/WX    TMP DP  RH WIND       PRES   REMARKS
ROCHESTER      SUNNY     81  68  64 NW13      29.98R
ROCHESTER/MAYO FAIR      80  62  55 NW13G22   29.97R
WINONA         SUNNY     82  64  54 N15G21    29.93R
AUSTIN         SUNNY     82  64  54 NW12G17   29.98R
ALBERT LEA     SUNNY     81  66  61 NW10G16   30.00R
DODGE CENTER   SUNNY     79  68  69 NW17G23   30.00R
PRESTON        SUNNY     80  74  81 N9        29.97R
OWATONNA       MOSUNNY   81  66  61 NW17      30.00R
FARIBAULT      PTSUNNY   82  63  51 NW12G18   30.00R
$$

...ELSEWHERE IN MINNESOTA...


CITY           SKY/WX    TMP DP  RH WIND       PRES   REMARKS
MINNEAPOLIS    PTSUNNY   79  64  60 NW15      29.99R
INTNL FALLS    SUNNY     71  58  63 NW16      30.00R
DULUTH         MOSUNNY   74  62  66 NW20G29   29.92S
RED WING       MOSUNNY   82  64  54 N13       29.96R
REDWOOD FALLS  MOSUNNY   77  64  64 N13G23    30.05R
MANKATO        CLOUDY    79  64  61 NW17      30.00S
WORTHINGTON    PTSUNNY   75  64  69 N13       30.11R
FAIRMONT       SUNNY     79  64  61 N12       30.05R
$$

...SOUTHWEST WISCONSIN...


CITY           SKY/WX    TMP DP  RH WIND       PRES   REMARKS
LA CROSSE      MOSUNNY   88  74  63 NW7       29.90R HX  96
PRAIRIE DU CHI PTSUNNY   86  73  65 S6        29.91F HX  92
BOSCOBEL       CLOUDY    86  74  67 SW8       29.92S HX  94
LONE ROCK      CLOUDY    88  75  65 W6        29.92F HX  97
PLATTEVILLE    MOSUNNY   85  76  73 SW12      29.96F HX  94
FORT MC COY    MOSUNNY   86  70  58 SW7       29.90S HX  91
CAMP DOUGLAS   MOSUNNY   86  77  74 SW8       29.89F HX  97
VIROQUA        FAIR      85  75  71 SW7       29.93F HX  93
WIS DELLS      MOSUNNY   86  71  60 SW12G20   29.92F HX  91
$$

...ELSEWHERE IN WISCONSIN...


CITY           SKY/WX    TMP DP  RH WIND       PRES   REMARKS
MILWAUKEE      CLOUDY    84  69  60 SW18      29.95F
MADISON        MOSUNNY   85  73  67 SW8       29.93F HX  91
GREEN BAY      MOSUNNY   85  73  67 SW13G22   29.86F HX  91
EAU CLAIRE     PTSUNNY   80  66  62 NW13      29.94R
BLACK RVR FLS  FAIR      90  71  53 NW7       29.89R HX  95
MEDFORD        MOSUNNY   78  66  66 NW15      29.93R
WAUSAU         PTSUNNY   85  70  60 W15G29    29.86R
WIS RAPIDS     MOSUNNY   88  72  58 W14       29.90R HX  94
MARSHFIELD     PTSUNNY   84  72  67 NW20      29.90R
RICE LAKE      CLOUDY    77  63  61 NW12G18   29.98R
$$

...NORTHEAST IOWA...


CITY           SKY/WX    TMP DP  RH WIND       PRES   REMARKS
WATERLOO       SUNNY     87  75  67 SE10      29.91F HX  96
DUBUQUE        MOSUNNY   85  76  74 SW13      29.96F HX  94
DECORAH        SUNNY     86  75  70 SW3       29.94R HX  95
MASON CITY     SUNNY     85  69  58 NW10      30.01R
CHARLES CITY   SUNNY     86  72  62 NW8       29.98R HX  92
OELWEIN        MOSUNNY   86  77  74 S9        29.94F HX  97
$$

...ELSEWHERE IN IOWA...


CITY           SKY/WX    TMP DP  RH WIND       PRES   REMARKS
DES MOINES     CLOUDY    88  77  69 SE10      29.95F HX 100
IOWA CITY      MOSUNNY   86  77  74 SW8       29.97S HX  97
FORT DODGE     MOSUNNY   84  68  58 N7G16     30.03R
MARSHALLTOWN   PTSUNNY   86  78  77 SE8       29.93F HX  98
CEDAR RAPIDS   MOSUNNY   87  76  69 SW9       29.95F HX  97
$$

...NORTHERN ILLINOIS...


CITY           SKY/WX    TMP DP  RH WIND       PRES   REMARKS
CHICAGO-OHARE  PTSUNNY   83  66  56 SW13G22   30.00S
DUPAGE         MOSUNNY   85  69  58 SW16      30.00F
CHICAGO-MIDWAY MOSUNNY   87  69  54 SW20G25   30.00F HX  91
MOLINE         PTSUNNY   83  73  72 SW12      29.98S
ROCKFORD       MOSUNNY   85  72  65 S15       29.98F HX  91
STERLING       MOSUNNY   88  73  62 W9        29.98F HX  96
PEORIA         CLOUDY    84  71  65 S10       30.00F
$$

NOTE: "FAIR" INDICATES FEW OR NO CLOUDS BELOW 12,000 FEET WITH NO
SIGNIFICANT WEATHER AND/OR OBSTRUCTIONS TO VISIBILITY. WIND
SPEEDS ARE IN MILES-PER-HOUR.



USA.gov is the U.S. government's official web portal to all federal, state and local government web resources and services.